Regional Weather Roundup
Issued by NWS

Home | Current Version | Previous Version | Text Only | Print | Product List | Glossary On
Versions: 1 2 3 4 5 6 7 8 9 10 11 12 13 14 15 16 17 18 19 20 21 22 23 24 25 26 27 28 29 30 31 32 33 34 35 36 37 38 39 40 41 42 43 44 45 46 47 48 49 50
367
ASUS43 KOAX 020702
RWRNE

WEATHER ROUNDUP FOR NEBRASKA
NATIONAL WEATHER SERVICE OMAHA NE
200 AM CDT MON MAY 02 2016

NOTES: SATELLITE DATA IS BEING USED TO AUGMENT CLOUD COVER ABOVE
       12000 FEET.
       "FAIR" INDICATES FEW OR NO CLOUDS BELOW 12,000 FEET WITH NO
       SIGNIFICANT WEATHER AND/OR OBSTRUCTIONS TO VISIBILITY.

  * THESE STATIONS DO NOT REPORT WEATHER SUCH AS RAIN...SNOW OR FOG.

NEZ001>004-019>022-054>056-020800-
NEBRASKA PANHANDLE

CITY           SKY/WX    TMP DP  RH WIND       PRES   REMARKS
SCOTTSBLUFF    CLEAR     34  29  82 NW8       30.25F WCI  27
ALLIANCE       CLEAR     25  23  92 W7        30.23F WCI  17
CHADRON        CLEAR     34  30  85 SW5       30.25S WCI  30
KIMBALL        CLEAR     28  25  87 W7        30.26F WCI  21
SIDNEY         CLEAR     31  26  82 W10       30.26S WCI  22
$$

NEZ057>060-069>072-079>082-020800-
SOUTHWEST NEBRASKA

CITY           SKY/WX    TMP DP  RH WIND       PRES   REMARKS
NORTH PLATTE   CLEAR     33  30  88 W6        30.24S WCI  28
IMPERIAL       CLEAR     38  29  70 NW10      30.25F WCI  31
LEXINGTON      CLEAR     36  35  94 W5        30.23F WCI  32
MCCOOK         MOCLDY    39  34  82 N9        30.24S WCI  33
$$

NEZ005>010-023>029-035>040-094-020800-
NORTH CENTRAL NEBRASKA

CITY           SKY/WX    TMP DP  RH WIND       PRES   REMARKS
VALENTINE      CLEAR     33  29  85 W6        30.22F WCI  28
AINSWORTH      CLEAR     37  32  83 W6        30.22S WCI  32
BROKEN BOW     CLEAR     35  32  88 CALM      30.21F
ORD            CLEAR     34  32  92 CALM      30.20S
$$

NEZ041-046>049-061>064-073>077-083>087-020800-
SOUTH CENTRAL NEBRASKA

CITY           SKY/WX    TMP DP  RH WIND       PRES   REMARKS
GRAND ISLAND   CLOUDY    46  41  82 NW6       30.20F
AURORA         CLOUDY    46  44  94 W6        30.20S
HASTINGS       CLOUDY    45  41  86 NW5       30.20F
KEARNEY *      CLOUDY    39  36  87 W7        30.22F WCI  34
YORK           CLOUDY    46  45  93 NW8       30.19F
$$

NEZ011>018-030>034-042>045-020800-
NORTHEAST NEBRASKA

CITY           SKY/WX    TMP DP  RH WIND       PRES   REMARKS
NORFOLK        CLEAR     37  35  92 CALM      30.18S
ALBION         CLEAR     35  33  90 NW6       30.19F WCI  30
BLAIR          CLOUDY    48  44  85 NW3       30.15F
COLUMBUS *     CLEAR     39  34  81 W3        30.19S
FREMONT        CLOUDY    46  43  89 W3        30.17S
TEKAMAH        CLOUDY    47  43  86 NW6       30.16S
$$

NEZ050>053-065>068-078-088>093-020800-
SOUTHEAST NEBRASKA

CITY           SKY/WX    TMP DP  RH WIND       PRES   REMARKS
LINCOLN        CLOUDY    49  43  80 NW6       30.18F
OMAHA EPPLEY   CLOUDY    48  45  89 NW3       30.15F
BEATRICE       CLOUDY    46  44  91 W5        30.17F
FALLS CITY     CLOUDY    47  44  90 W6        30.15F
$$

NEZ044-045-051>053-067-020800-
OMAHA AREA

CITY           SKY/WX    TMP DP  RH WIND       PRES   REMARKS
OMAHA EPPLEY   CLOUDY    48  45  89 NW3       30.15F
BLAIR          CLOUDY    48  44  85 NW3       30.15F
FREMONT        CLOUDY    46  43  89 W3        30.17S
OFFUTT AFB     CLOUDY    47  47  98 W7        30.14F
$$




USA.gov is the U.S. government's official web portal to all federal, state and local government web resources and services.